owner,sensor,date,latitude,longitude,vertical_datum,sea_water_speed,direction_of_sea_water_velocity,upward_sea_water_velocity,qcFlag
Anadarko,ioos:station:wmo:42377:1,2021-11-01T00:15:00Z,27.2925,-90.9681,21.3,86.6,346.7,-9999.0,'111111111,111111111,999999991'
Anadarko,ioos:station:wmo:42377:1,2021-11-01T00:35:00Z,27.2925,-90.9681,21.3,85.1,345.4,-9999.0,'111111111,111111111,999999991'
Anadarko,ioos:station:wmo:42377:1,2021-11-01T00:55:00Z,27.2925,-90.9681,21.3,82.7,344.4,-9999.0,'111111111,111111111,999999991'
Anadarko,ioos:station:wmo:42377:1,2021-11-01T01:15:00Z,27.2925,-90.9681,21.3,80.2,343.4,-9999.0,'111111111,111111111,999999991'
Anadarko,ioos:station:wmo:42377:1,2021-11-01T01:35:00Z,27.2925,-90.9681,21.3,78.6,341.3,-9999.0,'111111111,111111111,999999991'
Anadarko,ioos:station:wmo:42377:1,2021-11-01T01:55:00Z,27.2925,-90.9681,21.3,79.4,341.6,-9999.0,'111111111,111111111,999999991'
Anadarko,ioos:station:wmo:42377:1,2021-11-01T02:15:00Z,27.2925,-90.9681,21.3,79.0,341.6,-9999.0,'111111111,111111111,999999991'
Anadarko,ioos:station:wmo:42377:1,2021-11-01T02:35:00Z,27.2925,-90.9681,21.3,77.8,341.7,-9999.0,'111111111,111111111,999999991'
Anadarko,ioos:station:wmo:42377:1,2021-11-01T02:55:00Z,27.2925,-90.9681,21.3,76.2,341.5,-9999.0,'111111111,111111111,999999991'
Anadarko,ioos:station:wmo:42377:1,2021-11-01T03:15:00Z,27.2925,-90.9681,21.3,76.8,341.6,-9999.0,'111111111,111111111,999999991'
Anadarko,ioos:station:wmo:42377:1,2021-11-01T03:35:00Z,27.2925,-90.9681,21.3,77.1,341.8,-9999.0,'111111111,111111111,999999991'
Anadarko,ioos:station:wmo:42377:1,2021-11-01T03:55:00Z,27.2925,-90.9681,21.3,78.5,342.8,-9999.0,'111111111,111111111,999999991'
Anadarko,ioos:station:wmo:42377:1,2021-11-01T04:15:00Z,27.2925,-90.9681,21.3,79.7,341.7,-9999.0,'111111111,111111111,999999991'
Anadarko,ioos:station:wmo:42377:1,2021-11-01T04:35:00Z,27.2925,-90.9681,21.3,82.7,341.1,-9999.0,'111111111,111111111,999999991'
Anadarko,ioos:station:wmo:42377:1,2021-11-01T04:55:00Z,27.2925,-90.9681,21.3,82.2,341.7,-9999.0,'111111111,111111111,999999991'
Anadarko,ioos:station:wmo:42377:1,2021-11-01T05:15:00Z,27.2925,-90.9681,21.3,81.6,340.5,-9999.0,'111111111,111111111,999999991'
Anadarko,ioos:station:wmo:42377:1,2021-11-01T05:35:00Z,27.2925,-90.9681,21.3,81.6,340.1,-9999.0,'111111111,111111111,999999991'
Anadarko,ioos:station:wmo:42377:1,2021-11-01T05:55:00Z,27.2925,-90.9681,21.3,82.7,339.8,-9999.0,'111111111,111111111,999999991'
Anadarko,ioos:station:wmo:42377:1,2021-11-01T06:15:00Z,27.2925,-90.9681,21.3,83.4,340.2,-9999.0,'111111111,111111111,999999991'
Anadarko,ioos:station:wmo:42377:1,2021-11-01T06:35:00Z,27.2925,-90.9681,21.3,83.2,339.5,-9999.0,'111111111,111111111,999999991'
Anadarko,ioos:station:wmo:42377:1,2021-11-01T06:55:00Z,27.2925,-90.9681,21.3,84.4,338.8,-9999.0,'111111111,111111111,999999991'
Anadarko,ioos:station:wmo:42377:1,2021-11-01T07:15:00Z,27.2925,-90.9681,21.3,82.9,340.3,-9999.0,'111111111,111111111,999999991'
Anadarko,ioos:station:wmo:42377:1,2021-11-01T07:35:00Z,27.2925,-90.9681,21.3,81.9,340.9,-9999.0,'111111111,111111111,999999991'
Anadarko,ioos:station:wmo:42377:1,2021-11-01T07:55:00Z,27.2925,-90.9681,21.3,83.9,343.5,-9999.0,'111111111,111111111,999999991'
Anadarko,ioos:station:wmo:42377:1,2021-11-01T08:15:00Z,27.2925,-90.9681,21.3,87.5,347.0,-9999.0,'111111111,111111111,999999991'
Anadarko,ioos:station:wmo:42377:1,2021-11-01T08:35:00Z,27.2925,-90.9681,21.3,91.8,347.2,-9999.0,'111111111,111111111,999999991'
Anadarko,ioos:station:wmo:42377:1,2021-11-01T08:55:00Z,27.2925,-90.9681,21.3,93.4,346.7,-9999.0,'111111111,111111111,999999991'
Anadarko,ioos:station:wmo:42377:1,2021-11-01T09:15:00Z,27.2925,-90.9681,21.3,92.8,348.6,-9999.0,'111111111,111111111,999999991'
Anadarko,ioos:station:wmo:42377:1,2021-11-01T09:35:00Z,27.2925,-90.9681,21.3,92.8,347.1,-9999.0,'111111111,111111111,999999991'
Anadarko,ioos:station:wmo:42377:1,2021-11-01T09:55:00Z,27.2925,-90.9681,21.3,91.3,346.0,-9999.0,'111111111,111111111,999999991'
Anadarko,ioos:station:wmo:42377:1,2021-11-01T10:15:00Z,27.2925,-90.9681,21.3,91.5,347.3,-9999.0,'111111111,111111111,999999991'
Anadarko,ioos:station:wmo:42377:1,2021-11-01T10:35:00Z,27.2925,-90.9681,21.3,92.4,348.1,-9999.0,'111111111,111111111,999999991'
Anadarko,ioos:station:wmo:42377:1,2021-11-01T10:55:00Z,27.2925,-90.9681,21.3,92.8,348.1,-9999.0,'111111111,111111111,999999991'
Anadarko,ioos:station:wmo:42377:1,2021-11-01T11:15:00Z,27.2925,-90.9681,21.3,94.8,347.4,-9999.0,'111111111,111111111,999999991'
Anadarko,ioos:station:wmo:42377:1,2021-11-01T11:35:00Z,27.2925,-90.9681,21.3,94.0,346.3,-9999.0,'111111111,111111111,999999991'
Anadarko,ioos:station:wmo:42377:1,2021-11-01T11:55:00Z,27.2925,-90.9681,21.3,88.3,347.4,-9999.0,'111111111,111111111,999999991'
Anadarko,ioos:station:wmo:42377:1,2021-11-01T12:15:00Z,27.2925,-90.9681,21.3,73.3,345.6,-9999.0,'111111111,111111111,999999991'
Anadarko,ioos:station:wmo:42377:1,2021-11-01T12:35:00Z,27.2925,-90.9681,21.3,77.0,348.6,-9999.0,'111111111,111111111,999999991'
Anadarko,ioos:station:wmo:42377:1,2021-11-01T12:55:00Z,27.2925,-90.9681,21.3,72.0,349.6,-9999.0,'111111111,111111111,999999991'
Anadarko,ioos:station:wmo:42377:1,2021-11-01T13:15:00Z,27.2925,-90.9681,21.3,76.8,342.0,-9999.0,'111111111,111111111,999999991'
Anadarko,ioos:station:wmo:42377:1,2021-11-01T13:35:00Z,27.2925,-90.9681,21.3,87.6,346.4,-9999.0,'111111111,111111111,999999991'
Anadarko,ioos:station:wmo:42377:1,2021-11-01T13:55:00Z,27.2925,-90.9681,21.3,83.4,342.6,-9999.0,'111111111,111111111,999999991'
Anadarko,ioos:station:wmo:42377:1,2021-11-01T14:15:00Z,27.2925,-90.9681,21.3,81.1,340.9,-9999.0,'111111111,111111111,999999991'
Anadarko,ioos:station:wmo:42377:1,2021-11-01T14:35:00Z,27.2925,-90.9681,21.3,82.5,338.7,-9999.0,'111111111,111111111,999999991'
Anadarko,ioos:station:wmo:42377:1,2021-11-01T14:55:00Z,27.2925,-90.9681,21.3,83.8,343.9,-9999.0,'111111111,111111111,999999991'
Anadarko,ioos:station:wmo:42377:1,2021-11-01T15:15:00Z,27.2925,-90.9681,21.3,81.4,341.7,-9999.0,'111111111,111111111,999999991'
Anadarko,ioos:station:wmo:42377:1,2021-11-01T15:35:00Z,27.2925,-90.9681,21.3,78.7,337.3,-9999.0,'111111111,111111111,999999991'
Anadarko,ioos:station:wmo:42377:1,2021-11-01T15:55:00Z,27.2925,-90.9681,21.3,78.5,341.0,-9999.0,'111111111,111111111,999999991'
Anadarko,ioos:station:wmo:42377:1,2021-11-01T16:15:00Z,27.2925,-90.9681,21.3,76.6,336.8,-9999.0,'111111111,111111111,999999991'
Anadarko,ioos:station:wmo:42377:1,2021-11-01T16:35:00Z,27.2925,-90.9681,21.3,76.4,334.0,-9999.0,'111111111,111111111,999999991'
Anadarko,ioos:station:wmo:42377:1,2021-11-01T16:55:00Z,27.2925,-90.9681,21.3,74.8,335.5,-9999.0,'111111111,111111111,999999991'
Anadarko,ioos:station:wmo:42377:1,2021-11-01T17:15:00Z,27.2925,-90.9681,21.3,74.2,335.2,-9999.0,'111111111,111111111,999999991'
Anadarko,ioos:station:wmo:42377:1,2021-11-01T17:35:00Z,27.2925,-90.9681,21.3,70.5,338.6,-9999.0,'111111111,111111111,999999991'
Anadarko,ioos:station:wmo:42377:1,2021-11-01T17:55:00Z,27.2925,-90.9681,21.3,71.9,340.6,-9999.0,'111111111,111111111,999999991'
Anadarko,ioos:station:wmo:42377:1,2021-11-01T18:15:00Z,27.2925,-90.9681,21.3,72.5,342.0,-9999.0,'111111111,111111111,999999991'
Anadarko,ioos:station:wmo:42377:1,2021-11-01T18:35:00Z,27.2925,-90.9681,21.3,68.2,345.0,-9999.0,'111111111,111111111,999999991'
Anadarko,ioos:station:wmo:42377:1,2021-11-01T18:55:00Z,27.2925,-90.9681,21.3,63.7,345.3,-9999.0,'111111111,111111111,999999991'
Anadarko,ioos:station:wmo:42377:1,2021-11-01T19:15:00Z,27.2925,-90.9681,21.3,65.3,339.4,-9999.0,'111111111,111111111,999999991'
Anadarko,ioos:station:wmo:42377:1,2021-11-01T19:35:00Z,27.2925,-90.9681,21.3,65.4,342.9,-9999.0,'111111111,111111111,999999991'
Anadarko,ioos:station:wmo:42377:1,2021-11-01T19:55:00Z,27.2925,-90.9681,21.3,63.6,346.3,-9999.0,'111111111,111111111,999999991'
Anadarko,ioos:station:wmo:42377:1,2021-11-01T20:15:00Z,27.2925,-90.9681,21.3,62.0,349.4,-9999.0,'111111111,111111111,999999991'
Anadarko,ioos:station:wmo:42377:1,2021-11-01T20:35:00Z,27.2925,-90.9681,21.3,57.2,347.8,-9999.0,'111111111,111111111,999999991'
Anadarko,ioos:station:wmo:42377:1,2021-11-01T20:55:00Z,27.2925,-90.9681,21.3,56.3,349.2,-9999.0,'111111111,111111111,999999991'
Anadarko,ioos:station:wmo:42377:1,2021-11-01T21:15:00Z,27.2925,-90.9681,21.3,60.8,354.1,-9999.0,'111111111,111111111,999999991'
Anadarko,ioos:station:wmo:42377:1,2021-11-01T21:35:00Z,27.2925,-90.9681,21.3,63.4,350.7,-9999.0,'111111111,111111111,999999991'
Anadarko,ioos:station:wmo:42377:1,2021-11-01T21:55:00Z,27.2925,-90.9681,21.3,59.6,347.9,-9999.0,'111111111,111111111,999999991'
Anadarko,ioos:station:wmo:42377:1,2021-11-01T22:15:00Z,27.2925,-90.9681,21.3,60.5,348.0,-9999.0,'111111111,111111111,999999991'
Anadarko,ioos:station:wmo:42377:1,2021-11-01T22:35:00Z,27.2925,-90.9681,21.3,62.8,346.3,-9999.0,'111111111,111111111,999999991'
Anadarko,ioos:station:wmo:42377:1,2021-11-01T22:55:00Z,27.2925,-90.9681,21.3,64.1,342.5,-9999.0,'111111111,111111111,999999991'
Anadarko,ioos:station:wmo:42377:1,2021-11-01T23:15:00Z,27.2925,-90.9681,21.3,65.6,340.2,-9999.0,'111111111,111111111,999999991'
Anadarko,ioos:station:wmo:42377:1,2021-11-01T23:35:00Z,27.2925,-90.9681,21.3,64.8,338.1,-9999.0,'111111111,111111111,999999991'
Anadarko,ioos:station:wmo:42377:1,2021-11-01T23:55:00Z,27.2925,-90.9681,21.3,69.9,346.5,-9999.0,'111111111,111111111,999999991'
Anadarko,ioos:station:wmo:42377:1,2021-11-02T00:15:00Z,27.2925,-90.9681,21.3,76.3,349.5,-9999.0,'111111111,111111111,999999991'
Anadarko,ioos:station:wmo:42377:1,2021-11-02T00:35:00Z,27.2925,-90.9681,21.3,77.5,348.7,-9999.0,'111111111,111111111,999999991'
Anadarko,ioos:station:wmo:42377:1,2021-11-02T00:55:00Z,27.2925,-90.9681,21.3,76.6,348.4,-9999.0,'111111111,111111111,999999991'
Anadarko,ioos:station:wmo:42377:1,2021-11-02T01:15:00Z,27.2925,-90.9681,21.3,74.8,347.6,-9999.0,'111111111,111111111,999999991'
Anadarko,ioos:station:wmo:42377:1,2021-11-02T01:35:00Z,27.2925,-90.9681,21.3,73.2,347.1,-9999.0,'111111111,111111111,999999991'
Anadarko,ioos:station:wmo:42377:1,2021-11-02T01:55:00Z,27.2925,-90.9681,21.3,71.7,345.7,-9999.0,'111111111,111111111,999999991'
Anadarko,ioos:station:wmo:42377:1,2021-11-02T02:15:00Z,27.2925,-90.9681,21.3,69.2,346.1,-9999.0,'111111111,111111111,999999991'
Anadarko,ioos:station:wmo:42377:1,2021-11-02T02:35:00Z,27.2925,-90.9681,21.3,66.8,347.8,-9999.0,'111111111,111111111,999999991'
Anadarko,ioos:station:wmo:42377:1,2021-11-02T02:55:00Z,27.2925,-90.9681,21.3,66.0,347.0,-9999.0,'111111111,111111111,999999991'
Anadarko,ioos:station:wmo:42377:1,2021-11-02T03:15:00Z,27.2925,-90.9681,21.3,65.7,346.5,-9999.0,'111111111,111111111,999999991'
Anadarko,ioos:station:wmo:42377:1,2021-11-02T03:35:00Z,27.2925,-90.9681,21.3,66.3,346.2,-9999.0,'111111111,111111111,999999991'
Anadarko,ioos:station:wmo:42377:1,2021-11-02T03:55:00Z,27.2925,-90.9681,21.3,67.3,347.1,-9999.0,'111111111,111111111,999999991'
Anadarko,ioos:station:wmo:42377:1,2021-11-02T04:15:00Z,27.2925,-90.9681,21.3,67.9,347.2,-9999.0,'111111111,111111111,999999991'
Anadarko,ioos:station:wmo:42377:1,2021-11-02T04:35:00Z,27.2925,-90.9681,21.3,68.2,347.5,-9999.0,'111111111,111111111,999999991'
Anadarko,ioos:station:wmo:42377:1,2021-11-02T04:55:00Z,27.2925,-90.9681,21.3,69.0,348.0,-9999.0,'111111111,111111111,999999991'
Anadarko,ioos:station:wmo:42377:1,2021-11-02T05:15:00Z,27.2925,-90.9681,21.3,69.5,349.5,-9999.0,'111111111,111111111,999999991'
Anadarko,ioos:station:wmo:42377:1,2021-11-02T05:35:00Z,27.2925,-90.9681,21.3,70.7,350.3,-9999.0,'111111111,111111111,999999991'
Anadarko,ioos:station:wmo:42377:1,2021-11-02T05:55:00Z,27.2925,-90.9681,21.3,70.9,350.3,-9999.0,'111111111,111111111,999999991'
Anadarko,ioos:station:wmo:42377:1,2021-11-02T06:15:00Z,27.2925,-90.9681,21.3,71.6,348.1,-9999.0,'111111111,111111111,999999991'
Anadarko,ioos:station:wmo:42377:1,2021-11-02T06:35:00Z,27.2925,-90.9681,21.3,70.4,347.6,-9999.0,'111111111,111111111,999999991'
Anadarko,ioos:station:wmo:42377:1,2021-11-02T06:55:00Z,27.2925,-90.9681,21.3,68.5,347.1,-9999.0,'111111111,111111111,999999991'
Anadarko,ioos:station:wmo:42377:1,2021-11-02T07:15:00Z,27.2925,-90.9681,21.3,69.7,347.9,-9999.0,'111111111,111111111,999999991'
Anadarko,ioos:station:wmo:42377:1,2021-11-02T07:35:00Z,27.2925,-90.9681,21.3,72.8,349.2,-9999.0,'111111111,111111111,999999991'
Anadarko,ioos:station:wmo:42377:1,2021-11-02T07:55:00Z,27.2925,-90.9681,21.3,72.8,350.5,-9999.0,'111111111,111111111,999999991'
Anadarko,ioos:station:wmo:42377:1,2021-11-02T08:15:00Z,27.2925,-90.9681,21.3,72.3,350.3,-9999.0,'111111111,111111111,999999991'
Anadarko,ioos:station:wmo:42377:1,2021-11-02T08:35:00Z,27.2925,-90.9681,21.3,71.3,350.2,-9999.0,'111111111,111111111,999999991'
Anadarko,ioos:station:wmo:42377:1,2021-11-02T08:55:00Z,27.2925,-90.9681,21.3,73.4,351.1,-9999.0,'111111111,111111111,999999991'
Anadarko,ioos:station:wmo:42377:1,2021-11-02T09:15:00Z,27.2925,-90.9681,21.3,74.5,350.3,-9999.0,'111111111,111111111,999999991'
Anadarko,ioos:station:wmo:42377:1,2021-11-02T09:35:00Z,27.2925,-90.9681,21.3,75.6,350.7,-9999.0,'111111111,111111111,999999991'
Anadarko,ioos:station:wmo:42377:1,2021-11-02T09:55:00Z,27.2925,-90.9681,21.3,76.8,351.0,-9999.0,'111111111,111111111,999999991'
Anadarko,ioos:station:wmo:42377:1,2021-11-02T10:15:00Z,27.2925,-90.9681,21.3,71.7,351.0,-9999.0,'111111111,111111111,999999991'
Anadarko,ioos:station:wmo:42377:1,2021-11-02T10:35:00Z,27.2925,-90.9681,21.3,71.0,351.1,-9999.0,'111111111,111111111,999999991'
Anadarko,ioos:station:wmo:42377:1,2021-11-02T10:55:00Z,27.2925,-90.9681,21.3,68.8,352.6,-9999.0,'111111111,111111111,999999991'
Anadarko,ioos:station:wmo:42377:1,2021-11-02T11:15:00Z,27.2925,-90.9681,21.3,65.8,350.9,-9999.0,'111111111,111111111,999999991'
Anadarko,ioos:station:wmo:42377:1,2021-11-02T11:35:00Z,27.2925,-90.9681,21.3,62.9,345.5,-9999.0,'111111111,111111111,999999991'
Anadarko,ioos:station:wmo:42377:1,2021-11-02T11:55:00Z,27.2925,-90.9681,21.3,74.8,349.3,-9999.0,'111111111,111111111,999999991'
Anadarko,ioos:station:wmo:42377:1,2021-11-02T12:15:00Z,27.2925,-90.9681,21.3,79.4,348.3,-9999.0,'111111111,111111111,999999991'
Anadarko,ioos:station:wmo:42377:1,2021-11-02T12:35:00Z,27.2925,-90.9681,21.3,76.2,345.9,-9999.0,'111111111,111111111,999999991'
Anadarko,ioos:station:wmo:42377:1,2021-11-02T12:55:00Z,27.2925,-90.9681,21.3,79.4,347.3,-9999.0,'111111111,111111111,999999991'
Anadarko,ioos:station:wmo:42377:1,2021-11-02T13:15:00Z,27.2925,-90.9681,21.3,79.1,348.8,-9999.0,'111111111,111111111,999999991'
Anadarko,ioos:station:wmo:42377:1,2021-11-02T13:35:00Z,27.2925,-90.9681,21.3,76.7,345.4,-9999.0,'111111111,111111111,999999991'
Anadarko,ioos:station:wmo:42377:1,2021-11-02T13:55:00Z,27.2925,-90.9681,21.3,75.0,348.5,-9999.0,'111111111,111111111,999999991'
Anadarko,ioos:station:wmo:42377:1,2021-11-02T14:15:00Z,27.2925,-90.9681,21.3,77.0,350.0,-9999.0,'111111111,111111111,999999991'
Anadarko,ioos:station:wmo:42377:1,2021-11-02T14:35:00Z,27.2925,-90.9681,21.3,79.5,351.5,-9999.0,'111111111,111111111,999999991'
Anadarko,ioos:station:wmo:42377:1,2021-11-02T14:55:00Z,27.2925,-90.9681,21.3,80.0,352.1,-9999.0,'111111111,111111111,999999991'
Anadarko,ioos:station:wmo:42377:1,2021-11-02T15:15:00Z,27.2925,-90.9681,21.3,80.8,351.0,-9999.0,'111111111,111111111,999999991'
Anadarko,ioos:station:wmo:42377:1,2021-11-02T15:35:00Z,27.2925,-90.9681,21.3,78.2,349.2,-9999.0,'111111111,111111111,999999991'
Anadarko,ioos:station:wmo:42377:1,2021-11-02T15:55:00Z,27.2925,-90.9681,21.3,75.7,347.4,-9999.0,'111111111,111111111,999999991'
Anadarko,ioos:station:wmo:42377:1,2021-11-02T16:15:00Z,27.2925,-90.9681,21.3,74.7,347.0,-9999.0,'111111111,111111111,999999991'
Anadarko,ioos:station:wmo:42377:1,2021-11-02T16:35:00Z,27.2925,-90.9681,21.3,70.5,346.0,-9999.0,'111111111,111111111,999999991'
Anadarko,ioos:station:wmo:42377:1,2021-11-02T16:55:00Z,27.2925,-90.9681,21.3,66.7,344.9,-9999.0,'111111111,111111111,999999991'
Anadarko,ioos:station:wmo:42377:1,2021-11-02T17:15:00Z,27.2925,-90.9681,21.3,68.9,343.0,-9999.0,'111111111,111111111,999999991'
Anadarko,ioos:station:wmo:42377:1,2021-11-02T17:35:00Z,27.2925,-90.9681,21.3,75.7,343.6,-9999.0,'111111111,111111111,999999991'
Anadarko,ioos:station:wmo:42377:1,2021-11-02T17:55:00Z,27.2925,-90.9681,21.3,73.8,349.0,-9999.0,'111111111,111111111,999999991'
Anadarko,ioos:station:wmo:42377:1,2021-11-02T18:15:00Z,27.2925,-90.9681,21.3,76.9,343.6,-9999.0,'111111111,111111111,999999991'
Anadarko,ioos:station:wmo:42377:1,2021-11-02T18:35:00Z,27.2925,-90.9681,21.3,77.7,349.0,-9999.0,'111111111,111111111,999999991'
Anadarko,ioos:station:wmo:42377:1,2021-11-02T18:55:00Z,27.2925,-90.9681,21.3,73.6,345.7,-9999.0,'111111111,111111111,999999991'
Anadarko,ioos:station:wmo:42377:1,2021-11-02T19:15:00Z,27.2925,-90.9681,21.3,78.1,350.8,-9999.0,'111111111,111111111,999999991'
Anadarko,ioos:station:wmo:42377:1,2021-11-02T19:35:00Z,27.2925,-90.9681,21.3,75.3,345.5,-9999.0,'111111111,111111111,999999991'
Anadarko,ioos:station:wmo:42377:1,2021-11-02T19:55:00Z,27.2925,-90.9681,21.3,71.5,344.3,-9999.0,'111111111,111111111,999999991'
Anadarko,ioos:station:wmo:42377:1,2021-11-02T20:15:00Z,27.2925,-90.9681,21.3,64.3,354.7,-9999.0,'111111111,111111111,999999991'
Anadarko,ioos:station:wmo:42377:1,2021-11-02T20:35:00Z,27.2925,-90.9681,21.3,62.1,357.7,-9999.0,'111111111,111111111,999999991'
Anadarko,ioos:station:wmo:42377:1,2021-11-02T20:55:00Z,27.2925,-90.9681,21.3,60.4,334.5,-9999.0,'111111111,111111111,999999991'
Anadarko,ioos:station:wmo:42377:1,2021-11-02T21:15:00Z,27.2925,-90.9681,21.3,58.1,341.6,-9999.0,'111111111,111111111,999999991'
Anadarko,ioos:station:wmo:42377:1,2021-11-02T21:35:00Z,27.2925,-90.9681,21.3,57.6,335.9,-9999.0,'111111111,111111111,999999991'
Anadarko,ioos:station:wmo:42377:1,2021-11-02T21:55:00Z,27.2925,-90.9681,21.3,56.6,342.9,-9999.0,'111111111,111111111,999999991'
Anadarko,ioos:station:wmo:42377:1,2021-11-02T22:15:00Z,27.2925,-90.9681,21.3,55.4,342.0,-9999.0,'111111111,111111111,999999991'
Anadarko,ioos:station:wmo:42377:1,2021-11-02T22:35:00Z,27.2925,-90.9681,21.3,54.8,333.3,-9999.0,'111111111,111111111,999999991'
Anadarko,ioos:station:wmo:42377:1,2021-11-02T22:55:00Z,27.2925,-90.9681,21.3,59.0,331.9,-9999.0,'111111111,111111111,999999991'
Anadarko,ioos:station:wmo:42377:1,2021-11-02T23:15:00Z,27.2925,-90.9681,21.3,58.4,328.0,-9999.0,'111111111,111111111,999999991'
Anadarko,ioos:station:wmo:42377:1,2021-11-02T23:35:00Z,27.2925,-90.9681,21.3,50.1,317.1,-9999.0,'111111111,111111111,999999991'
Anadarko,ioos:station:wmo:42377:1,2021-11-02T23:55:00Z,27.2925,-90.9681,21.3,64.1,333.8,-9999.0,'111111111,111111111,999999991'
Anadarko,ioos:station:wmo:42377:1,2021-11-03T00:15:00Z,27.2925,-90.9681,21.3,73.9,345.4,-9999.0,'111111111,111111111,999999991'
Anadarko,ioos:station:wmo:42377:1,2021-11-03T00:35:00Z,27.2925,-90.9681,21.3,75.1,344.1,-9999.0,'111111111,111111111,999999991'
Anadarko,ioos:station:wmo:42377:1,2021-11-03T00:55:00Z,27.2925,-90.9681,21.3,76.3,342.0,-9999.0,'111111111,111111111,999999991'
Anadarko,ioos:station:wmo:42377:1,2021-11-03T01:15:00Z,27.2925,-90.9681,21.3,75.7,340.8,-9999.0,'111111111,111111111,999999991'
Anadarko,ioos:station:wmo:42377:1,2021-11-03T01:35:00Z,27.2925,-90.9681,21.3,73.5,339.7,-9999.0,'111111111,111111111,999999991'
Anadarko,ioos:station:wmo:42377:1,2021-11-03T01:55:00Z,27.2925,-90.9681,21.3,73.3,337.7,-9999.0,'111111111,111111111,999999991'
Anadarko,ioos:station:wmo:42377:1,2021-11-03T02:15:00Z,27.2925,-90.9681,21.3,71.0,336.0,-9999.0,'111111111,111111111,999999991'
Anadarko,ioos:station:wmo:42377:1,2021-11-03T02:35:00Z,27.2925,-90.9681,21.3,68.7,334.9,-9999.0,'111111111,111111111,999999991'
Anadarko,ioos:station:wmo:42377:1,2021-11-03T02:55:00Z,27.2925,-90.9681,21.3,65.6,334.5,-9999.0,'111111111,111111111,999999991'
Anadarko,ioos:station:wmo:42377:1,2021-11-03T03:15:00Z,27.2925,-90.9681,21.3,63.2,337.3,-9999.0,'111111111,111111111,999999991'
Anadarko,ioos:station:wmo:42377:1,2021-11-03T03:35:00Z,27.2925,-90.9681,21.3,61.3,341.1,-9999.0,'111111111,111111111,999999991'
Anadarko,ioos:station:wmo:42377:1,2021-11-03T03:55:00Z,27.2925,-90.9681,21.3,64.8,344.6,-9999.0,'111111111,111111111,999999991'
Anadarko,ioos:station:wmo:42377:1,2021-11-03T04:15:00Z,27.2925,-90.9681,21.3,66.5,343.9,-9999.0,'111111111,111111111,999999991'
Anadarko,ioos:station:wmo:42377:1,2021-11-03T04:35:00Z,27.2925,-90.9681,21.3,66.9,339.8,-9999.0,'111111111,111111111,999999991'
Anadarko,ioos:station:wmo:42377:1,2021-11-03T04:55:00Z,27.2925,-90.9681,21.3,63.3,340.7,-9999.0,'111111111,111111111,999999991'
Anadarko,ioos:station:wmo:42377:1,2021-11-03T05:15:00Z,27.2925,-90.9681,21.3,63.6,339.9,-9999.0,'111111111,111111111,999999991'
Anadarko,ioos:station:wmo:42377:1,2021-11-03T05:35:00Z,27.2925,-90.9681,21.3,66.2,341.1,-9999.0,'111111111,111111111,999999991'
Anadarko,ioos:station:wmo:42377:1,2021-11-03T05:55:00Z,27.2925,-90.9681,21.3,67.3,342.8,-9999.0,'111111111,111111111,999999991'
Anadarko,ioos:station:wmo:42377:1,2021-11-03T06:15:00Z,27.2925,-90.9681,21.3,68.6,338.6,-9999.0,'111111111,111111111,999999991'
Anadarko,ioos:station:wmo:42377:1,2021-11-03T06:35:00Z,27.2925,-90.9681,21.3,72.9,344.0,-9999.0,'111111111,111111111,999999991'
Anadarko,ioos:station:wmo:42377:1,2021-11-03T06:55:00Z,27.2925,-90.9681,21.3,75.7,343.7,-9999.0,'111111111,111111111,999999991'
Anadarko,ioos:station:wmo:42377:1,2021-11-03T07:15:00Z,27.2925,-90.9681,21.3,80.6,344.3,-9999.0,'111111111,111111111,999999991'
Anadarko,ioos:station:wmo:42377:1,2021-11-03T07:35:00Z,27.2925,-90.9681,21.3,82.5,346.9,-9999.0,'111111111,111111111,999999991'
Anadarko,ioos:station:wmo:42377:1,2021-11-03T07:55:00Z,27.2925,-90.9681,21.3,82.8,344.8,-9999.0,'111111111,111111111,999999991'
Anadarko,ioos:station:wmo:42377:1,2021-11-03T08:15:00Z,27.2925,-90.9681,21.3,81.6,344.7,-9999.0,'111111111,111111111,999999991'
Anadarko,ioos:station:wmo:42377:1,2021-11-03T08:35:00Z,27.2925,-90.9681,21.3,83.5,345.6,-9999.0,'111111111,111111111,999999991'
Anadarko,ioos:station:wmo:42377:1,2021-11-03T08:55:00Z,27.2925,-90.9681,21.3,80.9,345.2,-9999.0,'111111111,111111111,999999991'
Anadarko,ioos:station:wmo:42377:1,2021-11-03T09:15:00Z,27.2925,-90.9681,21.3,80.4,343.9,-9999.0,'111111111,111111111,999999991'
Anadarko,ioos:station:wmo:42377:1,2021-11-03T09:35:00Z,27.2925,-90.9681,21.3,79.9,345.2,-9999.0,'111111111,111111111,999999991'
Anadarko,ioos:station:wmo:42377:1,2021-11-03T09:55:00Z,27.2925,-90.9681,21.3,79.6,345.6,-9999.0,'111111111,111111111,999999991'
Anadarko,ioos:station:wmo:42377:1,2021-11-03T10:15:00Z,27.2925,-90.9681,21.3,81.1,345.9,-9999.0,'111111111,111111111,999999991'
Anadarko,ioos:station:wmo:42377:1,2021-11-03T10:35:00Z,27.2925,-90.9681,21.3,80.2,347.5,-9999.0,'111111111,111111111,999999991'
Anadarko,ioos:station:wmo:42377:1,2021-11-03T10:55:00Z,27.2925,-90.9681,21.3,76.6,347.3,-9999.0,'111111111,111111111,999999991'
Anadarko,ioos:station:wmo:42377:1,2021-11-03T11:15:00Z,27.2925,-90.9681,21.3,76.1,350.1,-9999.0,'111111111,111111111,999999991'
Anadarko,ioos:station:wmo:42377:1,2021-11-03T11:35:00Z,27.2925,-90.9681,21.3,78.8,349.0,-9999.0,'111111111,111111111,999999991'
Anadarko,ioos:station:wmo:42377:1,2021-11-03T11:55:00Z,27.2925,-90.9681,21.3,80.5,350.9,-9999.0,'111111111,111111111,999999991'
Anadarko,ioos:station:wmo:42377:1,2021-11-03T12:15:00Z,27.2925,-90.9681,21.3,75.8,352.7,-9999.0,'111111111,111111111,999999991'
Anadarko,ioos:station:wmo:42377:1,2021-11-03T12:57:00Z,27.2925,-90.9681,21.3,68.2,344.5,-9999.0,'111111111,111111111,999999991'
Anadarko,ioos:station:wmo:42377:1,2021-11-03T13:17:00Z,27.2925,-90.9681,21.3,70.5,340.7,-9999.0,'111111111,111111111,999999991'
Anadarko,ioos:station:wmo:42377:1,2021-11-03T13:44:00Z,27.2925,-90.9681,21.3,68.3,335.7,-9999.0,'111111111,111111111,999999991'
Anadarko,ioos:station:wmo:42377:1,2021-11-03T14:04:00Z,27.2925,-90.9681,21.3,68.9,341.0,-9999.0,'111111111,111111111,999999991'